Voltar ao catálogo

FENGYUN 1C DEB

AtivoPO
NORAD 30103·DEBRIS·🇨🇳 China

Lançado May 10, 1999 de Taiyuan Satellite Launch Center

Loading…

Próximas Passagens (próximas 24 horas)

TLE

AtualizadoSource: Space-Track

Época: Sep 14, 2026, 05:27 UTC

1 30103U 99025RG  26257.22774483  .00000558  00000-0  25203-3 0  9994
2 30103  99.2648 258.7569 0063936  53.6826   4.7214 14.25382195 18430

Acompanhe FENGYUN 1C DEB em tempo real com AllMySat

Download on the App Store